www.pogodaiklimat.ru

Погода и климат >> Архив погоды >> Бельгия >> Дурб


ПОГОДА в Дурбе

  • Прогноз погоды в Дурбе
  • Монитор погоды в Дурбе

АРХИВ ПОГОДЫ в Дурбе

Время (UTC), дата Ветер
(напр.,м/с)
 
Видим.   Явления Облачность Т
(С)
Тd
(С)
f
(%)
Тe
(С)
Тes
(С)
Комфортность P
(гПа)
Po
(гПа)
Тmin
(С)
Tmax
(С)
R
(мм)
R24
(мм)
S
(см)
13 10.09 СЗ 2 н/о н/о +18.8 +6.1 43 +20 +20 1017.9 990.3 99
14 10.09 С 2 н/о н/о +19.0 +6.0 43 +20 +20 1017.8 990.3 93
15 10.09 С 2 н/о н/о +18.9 +5.9 43 +20 +20 1017.9 990.3 100
16 10.09 С 1 н/о н/о +18.8 +6.5 45 +20 +20 1017.9 990.3 52
17 10.09 СЗ 2 н/о н/о +18.4 +4.9 41 +19 +19 1018.2 990.5 59
19 10.09 СЗ 2 н/о н/о +13.9 +7.1 64 +13 +13 1019.8 991.6
20 10.09 Ю 1 н/о н/о +11.9 +6.8 71 +12 +12 1020.8 992.5
21 10.09 Ю 1 н/о н/о +10.3 +7.1 81 +10 +10 1021.6 993.1
23 10.09 Ю 1 н/о н/о +8.5 +6.9 90 +8 +8 1021.6 992.9
00 11.09 штиль 0 н/о н/о +7.6 +6.7 94 +7 +7 1021.9 993.1 111
01 11.09 штиль 0 н/о н/о +7.5 +6.7 95 +6 +6 1022.1 993.2
02 11.09 СВ 1 н/о н/о +6.9 +6.5 97 +6 +6 1022.0 993.1
03 11.09 штиль 0 н/о н/о +7.2 +7.0 99 +6 +6 1022.0 993.1
05 11.09 Ю 1 н/о н/о +7.1 +6.8 98 +6 +6 1022.6 993.7
07 11.09 Ю 1 н/о н/о +9.9 +9.2 95 +9 +9 1022.9 994.3 5
08 11.09 ЮЗ 2 н/о н/о +11.8 +9.8 88 +11 +11 1023.1 994.7 42
09 11.09 ЮЗ 2
{3}
н/о н/о +14.1 +11.9 87 +14 +14 1023.4 995.3 46
10 11.09 ЮЗ 2 н/о н/о +16.0 +13.4 85 +16 +16 1023.3 995.4 83
11 11.09 ЮЗ 3 н/о н/о +16.5 +12.3 76 +16 +16 1023.0 995.1 94
12 11.09 ЮЗ 4 н/о н/о +17.7 +11.4 67 +17 +17 1023.1 995.3 96
13 11.09 Ю 5 н/о н/о +18.6 +11.3 62 +19 +19 1022.8 995.1 124
14 11.09 ЮЗ 5 н/о н/о +18.7 +10.5 59 +19 +19 1022.7 995.0 98
15 11.09 ЮЗ 4
{10}
н/о н/о +18.6 +10.3 58 +19 +19 1022.8 995.1 58
16 11.09 ЮЗ 4 н/о н/о +19.3 +10.0 55 +20 +20 1022.9 995.2 60
17 11.09 ЮЗ 3 н/о н/о +18.8 +10.0 57 +20 +20 1023.3 995.5 33
18 11.09 ЮЗ 2
{10}
н/о н/о +17.7 +9.7 59 +18 +18 1023.4 995.5 +19.3 8
19 11.09 ЮЗ 1 н/о н/о +17.1 +10.2 64 +18 +18 1023.9 996.0
20 11.09 З 2 н/о н/о +17.4 +10.5 64 +18 +18 1024.4 996.5
21 11.09 ЮЗ 2 н/о н/о +17.1 +12.0 72 +17 +17 1025.0 997.1
22 11.09 ЮЗ 3 н/о н/о +16.5 +14.1 86 +16 +16 1025.0 997.1
23 11.09 ЮЗ 2 н/о н/о +15.3 +15.1 99 +15 +15 1025.4 997.3
00 12.09 ЮЗ 2
{8}
н/о н/о +15.5 +15.4 99 +15 +15 1025.4 997.3 75
01 12.09 ЮЗ 3 н/о н/о +16.0 +15.7 98 +15 +15 1025.9 997.9
02 12.09 ЮЗ 2 н/о н/о +15.7 +15.7 100 +16 +16 1026.1 998.0
03 12.09 ЮЗ 2 н/о н/о +15.7 +15.7 100 +16 +16 1026.1 998.1
04 12.09 ЮЗ 2 н/о н/о +15.7 +15.7 100 +16 +16 1026.3 998.2
05 12.09 ЮЗ 2 н/о н/о +15.8 +15.8 100 +16 +16 1026.7 998.7
06 12.09 ЮЗ 2
{6}
н/о н/о +15.9 +15.9 100 +16 +16 1027.2 999.2 +15.3 1
07 12.09 ЮЗ 2 н/о н/о +16.2 +16.2 100 +16 +16 1027.7 999.7 9
08 12.09 ЮЗ 2 н/о н/о +16.6 +16.6 100 +17 +17 1028.4 1000.4 32
09 12.09 З 3
{6}
н/о н/о +16.9 +16.9 100 +17 +17 1029.1 1001.1 47
10 12.09 З 3 н/о н/о +17.7 +15.8 89 +18 +18 1029.7 1001.7 85
11 12.09 З 3 н/о н/о +18.8 +16.1 84 +20 +20 1029.4 1001.6 95
12 12.09 З 4
{9}
н/о н/о +21.6 +14.9 66 +25 +25 комфорт 1029.1 1001.5 0.6 171
13 12.09 ЮЗ 4 н/о н/о +22.9 +14.9 61 +27 +27 душно 1029.0 1001.5 181
14 12.09 ЮЗ 4 н/о н/о +23.3 +14.1 56 +27 +27 душно 1028.8 1001.4 164
15 12.09 ЮЗ 3 н/о н/о +21.5 +14.6 65 +25 +25 комфорт 1029.1 1001.5 83
16 12.09 З 3 н/о н/о +20.7 +15.3 71 +24 +24 комфорт 1029.3 1001.6 29
17 12.09 ЮЗ 2 н/о н/о +20.2 +15.8 76 +24 +24 комфорт 1029.5 1001.8 14
18 12.09 ЮЗ 2
{8}
н/о н/о +19.3 +16.1 82 +22 +22 комфорт 1029.9 1002.1 +23.3 0.6
19 12.09 ЮЗ 2 н/о н/о +18.6 +16.6 88 +20 +20 1030.3 1002.4
20 12.09 ЮЗ 2 н/о н/о +17.4 +16.1 92 +18 +18 1030.3 1002.3
21 12.09 ЮЗ 2 н/о н/о +16.9 +16.1 95 +17 +17 1030.3 1002.3
22 12.09 З 3 н/о н/о +17.1 +16.6 97 +17 +17 1030.6 1002.6
23 12.09 З 2 н/о н/о +17.0 +16.3 96 +17 +17 1030.6 1002.6
00 13.09 З 2 н/о н/о +16.6 +15.3 92 +17 +17 1030.7 1002.6 92
01 13.09 З 2 н/о н/о +15.5 +14.5 94 +15 +15 1030.8 1002.6
02 13.09 З 2 н/о н/о +15.8 +14.7 93 +16 +16 1030.6 1002.4
03 13.09 З 2 н/о н/о +15.8 +14.7 93 +16 +16 1030.6 1002.4
04 13.09 З 2 н/о н/о +15.6 +14.7 94 +15 +15 1030.7 1002.5
05 13.09 ЮЗ 2 н/о н/о +15.4 +14.7 96 +15 +15 1031.0 1002.8
06 13.09 З 1
{8}
н/о н/о +15.3 +14.9 97 +16 +16 1031.4 1003.2 +15.3
07 13.09 З 1 н/о н/о +15.7 +15.0 96 +16 +16 1031.8 1003.6 3
08 13.09 З 1 н/о н/о +16.4 +15.2 93 +17 +17 1032.2 1004.1 25
09 13.09 ЮЗ 2
{4}
н/о н/о +16.4 +15.2 93 +16 +16 1032.6 1004.5 26
10 13.09 СЗ 1 н/о н/о +16.8 +15.5 92 +18 +18 1032.5 1004.4 35
11 13.09 ЮЗ 1 н/о н/о +16.7 +15.7 94 +18 +18 1032.7 1004.6 33
12 13.09 З 1 н/о н/о +17.0 +16.0 94 +18 +18 1032.8 1004.7 36
13 13.09 СЗ 1 н/о н/о +17.5 +16.7 95 +19 +19 1032.7 1004.7 59
14 13.09 Ю 1 н/о н/о +18.2 +16.6 90 +20 +20 1032.4 1004.4 82
15 13.09 СЗ 1 н/о н/о +19.6 +16.6 83 +23 +23 комфорт 1032.2 1004.4 92
16 13.09 В 1 н/о н/о +20.3 +15.6 74 +24 +24 комфорт 1031.7 1003.9 94
17 13.09 С 1 н/о н/о +19.7 +15.4 76 +23 +23 комфорт 1031.8 1004.0 48
18 13.09 СЗ 1
{3}
н/о н/о +19.0 +15.8 82 +21 +21 комфорт 1031.9 1004.0 +20.4 9
19 13.09 С 1 н/о н/о +17.9 +15.5 86 +19 +19 1032.5 1004.5
20 13.09 н/о н/о +17.4 +15.4 88 1032.5 1004.4
21 13.09 н/о н/о +16.9 +15.0 89 1033.0 1004.9
22 13.09 н/о н/о +15.7 +13.9 89 1033.0 1004.7
23 13.09 С 2 н/о н/о +14.4 +12.9 91 +14 +14 1033.2 1004.8
00 14.09 н/о н/о +12.8 +11.9 94 1033.2 1004.6 54
01 14.09 В 1 н/о н/о +12.5 +12.0 97 +12 +12 1033.1 1004.5
02 14.09 В 1 н/о н/о +11.9 +11.7 99 +12 +12 1032.9 1004.2
03 14.09 В 1 н/о н/о +11.4 +11.3 99 +11 +11 1032.6 1003.9
04 14.09 С 1 н/о н/о +10.6 +10.6 100 +10 +10 1032.5 1003.7
05 14.09 ЮВ 1 н/о н/о +9.6 +9.6 100 +9 +9 1032.9 1004.0
06 14.09 В 2
{3}
н/о н/о +10.0 +10.0 100 +8 +8 1032.9 1004.1 +9.6 1
07 14.09 ЮВ 1 н/о н/о +10.8 +10.8 100 +10 +10 1032.6 1003.9 30
08 14.09 СВ 1 н/о н/о +12.8 +12.2 96 +13 +13 1032.6 1004.1 78
09 14.09 ЮВ 2
{3}
н/о н/о +16.8 +13.4 80 +17 +17 1031.9 1003.8 121
10 14.09 СВ 2 н/о н/о +19.1 +12.3 65 +21 +21 комфорт 1031.5 1003.6 155
11 14.09 С 2 н/о н/о +20.5 +11.4 56 +23 +23 комфорт 1030.8 1003.0 179
12 14.09 С 2 н/о н/о +21.2 +11.3 53 +23 +23 комфорт 1029.8 1002.2 191
13 14.09 С 2 н/о н/о +22.2 +10.2 46 +24 +24 комфорт 1029.4 1001.8 188
14 14.09 С 2 н/о н/о +22.8 +10.2 45 +25 +25 комфорт 1028.5 1001.0 170
15 14.09 СВ 2 н/о н/о +23.2 +9.8 43 +25 +25 комфорт 1028.0 1000.5 141
16 14.09 С 2 н/о н/о +22.5 +8.8 42 +24 +24 комфорт 1027.4 999.9 103
17 14.09 С 2 н/о н/о +21.4 +8.9 45 +23 +23 комфорт 1027.4 999.7 51
18 14.09 С 2
{5}
н/о н/о +19.0 +9.6 54 +20 +20 1027.6 999.8 +23.2 3
19 14.09 СВ 1 н/о н/о +17.3 +10.0 62 +18 +18 1027.9 999.9
20 14.09 В 1 н/о н/о +15.6 +9.9 69 +16 +16 1027.6 999.5
21 14.09 штиль 0 н/о н/о +13.4 +9.4 77 +13 +13 1027.8 999.4
22 14.09 Ю 1 н/о н/о +11.7 +9.4 86 +12 +12 1027.9 999.4
23 14.09 штиль 0 н/о н/о +10.7 +9.5 92 +10 +10 1027.0 998.4
00 15.09 штиль 0 н/о н/о +9.9 +9.0 94 +9 +9 1026.7 998.1 141
01 15.09 штиль 0 н/о н/о +9.2 +8.7 97 +8 +8 1026.7 997.9
02 15.09 штиль 0 н/о н/о +8.5 +8.2 98 +7 +7 1026.3 997.5
03 15.09 СЗ 1 н/о н/о +8.2 +8.1 99 +7 +7 1025.8 997.0
04 15.09 штиль 0 н/о н/о +7.4 +7.4 100 +6 +6 1025.8 996.9
05 15.09 СЗ 1 н/о н/о +7.4 +7.4 100 +6 +6 1025.8 996.9
06 15.09 С 1
{1}
н/о н/о +7.6 +7.6 100 +6 +6 1025.7 996.9 +7.3 1
07 15.09 штиль 0 н/о н/о +8.5 +8.5 100 +7 +7 1025.7 997.0 27
08 15.09 Ю 1 н/о н/о +12.7 +10.8 88 +13 +13 1025.3 997.0 77
09 15.09 ЮЗ 1
{2}
н/о н/о +16.9 +12.5 75 +18 +18 1024.8 997.0 122
10 15.09 СЗ 2 н/о н/о +21.0 +12.1 57 +24 +24 комфорт 1024.3 996.8 155
11 15.09 СЗ 2 н/о н/о +22.3 +11.9 52 +25 +25 комфорт 1024.0 996.6 180
12 15.09 З 2 н/о н/о +23.9 +10.8 44 +25 +25 комфорт 1023.4 996.2 190
13 15.09 С 2 н/о н/о +24.7 +8.2 35 +25 +25 комфорт 1022.8 995.6 190
14 15.09 СЗ 1 н/о н/о +24.9 +8.2 35 +25 +25 комфорт 1022.1 995.0 155
15 15.09 СЗ 2 н/о н/о +25.1 +7.8 33 +25 +25 комфорт 1021.5 994.3 138
16 15.09 СЗ 2 н/о н/о +24.1 +9.0 38 +25 +25 комфорт 1021.2 994.0 102
17 15.09 СЗ 2 н/о н/о +22.2 +9.0 43 +24 +24 комфорт 1021.4 994.0 47
18 15.09 С 1
{5}
н/о н/о +19.9 +10.2 54 +22 +22 комфорт 1021.7 994.1 +25.4 1
19 15.09 С 1 н/о н/о +18.0 +9.9 59 +19 +19 1022.1 994.3
20 15.09 штиль 0 н/о н/о +15.0 +10.1 72 +15 +15 1022.5 994.4
21 15.09 штиль 0 н/о н/о +13.0 +10.0 82 +13 +13 1022.7 994.4
22 15.09 С 1 н/о н/о +11.9 +10.1 89 +12 +12 1022.8 994.4
23 15.09 СВ 1 н/о н/о +10.8 +9.6 92 +10 +10 1022.8 994.4
00 16.09 СВ 1 н/о н/о +9.9 +9.2 95 +9 +9 1022.4 993.8 139
01 16.09 С 1 н/о н/о +9.3 +8.9 97 +9 +9 1022.2 993.6
02 16.09 штиль 0 н/о н/о +8.9 +8.5 97 +8 +8 1022.1 993.4
03 16.09 ЮВ 1 н/о н/о +8.7 +8.6 99 +8 +8 1021.8 993.2
04 16.09 С 1 н/о н/о +8.7 +8.6 99 +8 +8 1021.4 992.7
05 16.09 С 1 н/о н/о +8.4 +8.3 99 +7 +7 1021.2 992.5
06 16.09 С 1
{2}
н/о н/о +8.9 +8.9 100 +8 +8 1021.3 992.6 +8.3
07 16.09 С 1 н/о н/о +10.0 +9.9 99 +9 +9 1020.9 992.4 15
08 16.09 С 1 н/о н/о +12.8 +12.2 96 +13 +13 1020.9 992.7 38
09 16.09 ЮЗ 1
{2}
н/о н/о +15.1 +11.9 81 +16 +16 1021.0 993.0 75
10 16.09 ЮЗ 2 н/о н/о +19.3 +12.3 64 +21 +21 комфорт 1020.2 992.7 105
11 16.09 ЮЗ 2 н/о н/о +22.4 +11.8 51 +25 +25 комфорт 1019.8 992.5 136
12 16.09 З 2 н/о н/о +23.0 +10.0 44 +25 +25 комфорт 1019.4 992.2 128
13 16.09 СЗ 2 н/о н/о +23.6 +11.2 46 +25 +25 комфорт 1018.9 991.7 114
14 16.09 СЗ 2 н/о н/о +22.5 +11.5 50 +25 +25 комфорт 1018.8 991.6 74
15 16.09 СЗ 3 н/о н/о +21.4 +14.8 66 +24 +24 комфорт 1019.0 991.7 57
16 16.09 СЗ 3 н/о н/о +20.2 +14.6 70 +23 +23 комфорт 1019.2 991.8 45
17 16.09 СЗ 1 н/о н/о +19.4 +14.8 75 +22 +22 комфорт 1019.2 991.7 14
18 16.09 С 1
{7}
н/о н/о +18.7 +14.9 79 +21 +21 комфорт 1019.4 991.9 +23.6 1
19 16.09 С 2 н/о н/о +16.5 +15.9 96 +17 +17 1020.1 992.3
20 16.09 С 1 н/о н/о +16.0 +15.8 99 +17 +17 1020.3 992.4
21 16.09 С 2 н/о н/о +15.6 +15.4 99 +15 +15 1020.3 992.4
22 16.09 С 1 н/о н/о +14.9 +14.8 99 +15 +15 1020.7 992.7
23 16.09 С 1 н/о н/о +14.5 +14.5 100 +15 +15 1020.9 992.9
00 17.09 СВ 1
{5}
н/о н/о +13.9 +13.9 100 +14 +14 1020.9 992.8 80
01 17.09 С 1 н/о н/о +13.8 +13.8 100 +14 +14 1020.8 992.7
02 17.09 С 1 н/о н/о +13.8 +13.8 100 +14 +14 1020.6 992.5
03 17.09 С 2 н/о н/о +13.6 +13.6 100 +13 +13 1020.8 992.7
04 17.09 н/о н/о +12.8 +12.7 99 1020.9 992.7
05 17.09 СВ 1 н/о н/о +12.7 +12.6 99 +13 +13 1021.1 992.8
06 17.09 штиль 0
{4}
н/о н/о +12.6 +12.6 100 +12 +12 1021.4 993.2 +12.6 1
07 17.09 С 1 н/о н/о +12.8 +12.8 100 +13 +13 1021.8 993.6 1
08 17.09 С 1 н/о н/о +13.2 +12.8 97 +13 +13 1022.3 994.1 24
09 17.09 С 2
{4}
н/о н/о +14.1 +11.0 82 +14 +14 1022.4 994.2 81
10 17.09 н/о н/о +16.0 +10.1 68 1022.2 994.2 140
11 17.09 СЗ 3 н/о н/о +16.7 +9.7 63 +17 +17 1022.1 994.2 135
12 17.09 СЗ 3 н/о н/о +17.5 +9.2 58 +18 +18 1021.9 994.1 183
13 17.09 СЗ 2 н/о н/о +17.9 +9.0 56 +18 +18 1021.5 993.7 170

 

Местоположение метеостанции Дурб (Бельгия): широта 50.10 долгота 4.60 высота над уровнем моря 231 м.

В архиве по умолчанию представлена погода в Дурбе за последнюю неделю. Архивные данные за месяц целиком и за предыдущие месяцы, начиная с января 2011 года, Вы можете получить, выбрав интересующий диапазон дат из раскрывающегося списка и нажав кнопку "Ввод!".


*Определитесь, кто Вы:
робот инопланетянин человек

Внимание! Время в таблицах - всемирное. Для получения местного времени необходимо прибавить поправку, которая равна 1 ч.

Смотрите также архив погоды в соседних городах и на ближайших метеорологических станциях:

Погода во Флорене (Бельгия) (15 км)
Погода в Чарвилле (Франция) (36 км)
Погода в Шарлеруа (Бельгия) (43 км)
Погода в Гумане (Бельгия) (48 км)
Погода в Сент-Губерте (Бельгия) (58 км)
Погода в Эрнаже (Бельгия) (64 км)
Погода в Бовешене (Бельгия) (73 км)
Погода в Шьевре (Бельгия) (76 км)
Погода в Уккеле (Бельгия) (80 км)
Погода в Бьерсете (Бельгия) (86 км)

Пояснения к столбцам:

Ветер - указаны скорость ветра в м/с - средняя за 10 мин, порывы в срок и между сроками (в фигурных скобках) и направление, откуда дует ветер: С - северный, СВ - северо-восточный, В - восточный, ЮВ - юго-восточный, Ю - южный, ЮЗ - юго-западный, З - западный, СЗ - северо-западный.
Видимость - горизонтальная дальность видимости в метрах или километрах. При видимости от 1 до 10 км при отсутствии осадков обычно наблюдается дымка, при ухудшении видимости до 1 км и менее - туман. В сухую погоду видимость может ухудшаться дымом, пылью или мглою.
Явления - указаны атмосферные явления, наблюдавшиеся в срок или в последний час перед сроком; фигурными скобками обозначены явления, наблюдавшиеся между сроками (за 1-3 часа до срока); квадратными скобками обозначены град или гололедные отложения с указанием их диаметра в мм.
Облачность - указаны через наклонную черту общая и нижняя облачность в баллах и высота нижней границы облаков в метрах; квадратными скобками обозначены формы облаков: Ci - перистые, Cs - перисто-слоистые, Cc - перисто-кучевые, Ac - высококучевые, As - высокослоистые, Sc - слоисто-кучевые, Ns - слоисто-дождевые, Cu - кучевые, Cb - кучево-дождевые. Подробнее классификацию облаков см. в Атласе облаков (PDF).
T - Температура воздуха - температура, измеренная на высоте 2 м над землей.
Td - Температура точки росы - температура, при понижении до которой содержащийся в воздухе водяной пар достигнет насыщения.
f - Относительная влажность воздуха - влажноcть воздуха, измеренная на высоте 2 м над землей.
Te - Эффективная температура - температура, которую ощущает одетый по сезону человек в тени. Характеристика душности погоды. При расчете учитывается влияние влажности воздуха и скорости ветра на теплоощущения человека.
Tes - Эффективная температура на солнце - температура, которую ощущает человек, с поправкой на солнечный нагрев. Характеристика знойности погоды. Зависит от высоты солнца над горизонтом, облачности и скорости ветра. Ночью, в пасмурную погоду, а также при ветре 12 м/с и более поправка равна нулю.
P - Атмосферное давление - приведенное к уровню моря атмосферное давление.
Po - Атмосферное давление - измеренное на уровне метеостанции атмосферное давление.
Tmin - Минимальная температура - минимум температуры воздуха на высоте 2 м над землей.
Tmax - Максимальная температура - максимум температуры воздуха на высоте 2 м над землей.
R - Количество осадков - Количество выпавших осадков за период времени, мм. При наведении курсора мыши на число - период времени, за который выпало указанное количество осадков.
R24 - Количество осадков - Количество выпавших осадков за 24 часа, мм.
S - Снежный покров - Высота снежного покрова, см. При наведении курсора мыши на число - состояние снежного покрова и степень покрытия местности в баллах.